This is the latest recevied weather packets stored in our database for station/object NO9B. If no packets are shown the sender has not sent any weather packets the latest 1 day(s).
| Time | Temp. | Humidity | Pressure | Rain* | Wind** | Luminosity | Snow |
|---|---|---|---|---|---|---|---|
| 1778044549 | 5° C | 63% | 1012.2 hPa | 0 mm | 0 m/s | 0 W/m² | - |
| 1778044246 | 5° C | 62% | 1012.4 hPa | 0 mm | 0.45 m/s, 290° | 0 W/m² | - |
| 1778043944 | 5.56° C | 61% | 1012.4 hPa | 0 mm | 0 m/s | 0 W/m² | - |
| 1778043641 | 5.56° C | 60% | 1012.3 hPa | 0 mm | 0.45 m/s, 272° | 0 W/m² | - |
| 1778043338 | 5.56° C | 59% | 1012.2 hPa | 0 mm | 0.45 m/s, 294° | 0 W/m² | - |
| 1778043034 | 5.56° C | 58% | 1012.2 hPa | 0 mm | 0 m/s | 0 W/m² | - |
| 1778042732 | 5.56° C | 56% | 1012.2 hPa | 0 mm | 0.45 m/s, 293° | 0 W/m² | - |
| 1778042429 | 6.11° C | 56% | 1012.2 hPa | 0 mm | 0.45 m/s, 291° | 0 W/m² | - |
| 1778042126 | 6.11° C | 54% | 1012.2 hPa | 0 mm | 0.45 m/s, 287° | 0 W/m² | - |
| 1778041825 | 6.67° C | 52% | 1012.2 hPa | 0 mm | 0 m/s | 0 W/m² | - |
| 1778041523 | 6.67° C | 52% | 1012.2 hPa | 0 mm | 0 m/s | 0 W/m² | - |
| 1778041221 | 6.67° C | 52% | 1012 hPa | 0 mm | 0.45 m/s, 236° | 0 W/m² | - |
| 1778040919 | 7.22° C | 50% | 1012 hPa | 0 mm | 0 m/s | 0 W/m² | - |
| 1778040616 | 7.22° C | 50% | 1011.9 hPa | 0 mm | 0 m/s | 0 W/m² | - |
| 1778040314 | 7.78° C | 48% | 1011.9 hPa | 0 mm | 0.89 m/s, 318° | 0 W/m² | - |
| 1778040009 | 7.78° C | 44% | 1011.9 hPa | 0 mm | 0.89 m/s, 301° | 0 W/m² | - |
| 1778039706 | 7.78° C | 40% | 1011.8 hPa | 0 mm | 0.89 m/s, 328° | 0 W/m² | - |
| 1778039403 | 8.33° C | 40% | 1011.8 hPa | 0 mm | 0.89 m/s, 313° | 0 W/m² | - |
| 1778039101 | 8.33° C | 39% | 1011.7 hPa | 0 mm | 1.34 m/s, 355° | 0 W/m² | - |
| 1778038797 | 8.33° C | 39% | 1011.8 hPa | 0 mm | 1.34 m/s, 334° | 0 W/m² | - |
| 1778038495 | 8.33° C | 39% | 1011.7 hPa | 0 mm | 1.34 m/s, 339° | 0 W/m² | - |
| 1778038191 | 8.89° C | 40% | 1011.6 hPa | 0 mm | 1.79 m/s, 344° | 0 W/m² | - |
| 1778037889 | 8.89° C | 39% | 1011.7 hPa | 0 mm | 1.79 m/s, 350° | 0 W/m² | - |
| 1778037585 | 8.89° C | 38% | 1011.8 hPa | 0 mm | 1.79 m/s, 339° | 0 W/m² | - |
| 1778037283 | 8.89° C | 38% | 1011.6 hPa | 0 mm | 1.79 m/s, 343° | 0 W/m² | - |
* Rain latest hour (hover to see other rain measurements)
** Current wind speed in m/s (hover to see current wind gust speed)